User: anonymous   Login
Location: Unspecified
(0.0000°N, 0.0000°E)
Time: 20:48:52
(UTC+00:00)
Language:

Dynamics Explorer 1 - Orbit

View from above orbital plane
View from above orbital plane
View from above satellite
View from above satellite

Ground track
Ground track

The orbit is defined by the following mean orbital elements,

1 12624U          26150.02036448 +.00000000 +00000-0 +44838-3 0 00009
2 12624  90.8980  47.5025 6246543 207.4646  97.3022  3.52917353    04
Epoch (UTC): 30 May 2026 00:29:19
Eccentricity: 0.6246543
inclination: 90.8980°
perigee height: 462 km
apogee height: 23228 km
right ascension of ascending node: 47.5025°
argument of perigee: 207.4646°
revolutions per day: 3.52917353
mean anomaly at epoch: 97.3022°

The dashed part of the orbit path shows where the satellite is in the earth's shadow,  

DLR